RH
59 61 59 57 60 59 59 61 61 61 60 58 56 54 57 59 60 59 63 61 54 52 50 46 47 49 52 47 37 36 25 21 21 23 25 30 32 38 42 44 49 54 53 52
60 61 59 59 59 60 60 59 58 54 56 56 54 51 55 55 56 57 60 62 64 60 61 60 59 52 50 52 51 46 39 29 23 24 26 28 31 33 40 45 51 57 58 57
63 60 60 58 58 60 56 55 55 55 53 54 53 52 48 47 48 52 55 57 63 64 65 67 64 64 62 52 55 57 52 44 37 34 30 30 33 34 38 40 43 45 50 50
58 59 57 54 49 50 56 49 47 46 48 52 47 51 47 41 43 46 47 48 52 56 59 63 67 67 69 57 58 61 61 58 50 43 40 35 36 38 40 45 51 50 47 50
61 52 50 51 45 39 40 39 37 39 44 45 47 48 46 44 37 39 45 47 48 49 53 56 63 69 72 73 64 59 62 63 62 55 51 49 45 48 47 45 44 48 49 52
52 46 41 37 35 36 35 34 35 30 28 38 30 33 36 36 32 35 38 39 45 48 49 56 62 69 73 76 74 72 60 63 70 63 61 61 59 61 61 60 54 58 62 66
43 36 33 34 35 33 34 42 42 33 28 27 25 21 28 25 24 31 34 37 42 48 50 53 60 70 73 78 78 79 81 75 68 81 76 66 69 72 73 75 75 71 68 71
45 48 37 33 32 33 34 37 39 43 32 28 32 30 25 21 21 26 29 36 45 48 49 53 55 64 74 77 80 82 82 71 72 80 80 72 68 76 77 86 90 90 87 86
39 38 31 29 30 30 41 35 32 26 29 29 23 23 22 23 23 22 27 36 42 47 51 51 53 58 66 71 78 79 82 72 74 76 73 82 81 85 93 96 95 86 85 86
31 28 28 26 26 26 28 30 32 33 30 26 20 24 23 21 18 20 22 27 37 43 52 58 53 58 61 65 74 73 75 87 78 74 73 81 88 91 93 86 78 76 82 82
25 26 27 25 28 25 30 28 28 20 20 22 21 20 17 17 20 21 24 26 30 37 49 60 59 57 59 61 67 73 75 79 82 75 80 87 76 79 76 87 78 72 67 67
23 22 24 22 16 14 15 17 18 19 22 22 21 21 23 22 23 23 23 26 31 35 47 59 64 61 57 58 57 59 64 71 70 73 80 83 85 82 80 86 74 69 69 65
18 19 18 17 18 18 17 19 17 16 18 22 24 23 23 24 23 24 27 30 35 39 44 56 65 76 61 58 60 59 64 66 68 74 75 71 73 79 78 81 72 69 79 72
14 14 15 16 16 17 16 17 19 19 21 22 21 22 21 25 26 28 31 33 41 42 49 57 62 73 67 63 61 60 60 64 67 66 74 72 73 79 80 77 79 78 72 62
16 19 19 18 17 17 17 17 18 20 23 25 21 21 24 26 33 33 35 37 46 47 50 58 63 69 69 65 65 62 62 65 66 66 67 71 76 77 78 78 76 70 64 58
23 22 22 20 20 20 20 20 20 19 19 19 22 25 31 37 36 36 42 46 53 56 57 63 69 68 69 64 65 64 63 63 66 68 70 73 76 78 74 71 68 64 56 47
22 22 23 22 20 20 19 16 17 19 20 21 25 27 30 37 38 44 46 50 58 63 64 65 69 68 67 67 68 70 68 68 71 72 74 75 72 64 70 72 64 51 44 41
21 24 22 21 20 25 21 21 20 20 20 21 27 31 38 42 41 46 53 56 57 61 66 68 72 72 75 74 76 77 77 73 74 76 74 66 63 52 58 60 49 44 39 32
19 20 22 21 21 21 22 24 26 23 21 23 30 34 39 44 44 47 58 57 58 62 65 68 69 75 76 75 77 78 79 69 66 67 67 68 59 48 45 44 40 33 30 28
22 22 24 26 32 27 25 27 24 25 28 38 39 38 39 42 44 55 62 64 65 67 70 69 66 68 70 72 71 70 66 69 72 72 72 62 52 42 38 32 23 21 24 24
27 28 28 29 30 30 28 28 28 31 41 41 38 39 39 40 46 54 59 67 70 72 75 77 77 71 66 65 66 66 61 62 63 59 51 41 34 27 18 16 17 18 19 24
28 31 29 31 32 30 30 30 31 35 34 32 35 39 41 44 48 51 63 69 72 73 76 76 71 65 61 65 64 62 59 48 39 33 28 25 20 20 19 18 18 19 24 28
33 28 28 30 29 35 32 32 31 33 34 36 40 39 40 44 51 55 57 63 69 75 79 73 66 65 67 65 64 65 54 46 35 20 19 18 19 23 26 24 26 33 36 36
31 32 29 29 30 30 34 34 33 30 34 36 38 40 45 49 57 57 59 69 70 69 65 63 60 65 67 70 65 62 57 51 30 22 21 22 27 29 28 30 37 37 34 33
31 35 32 32 33 35 31 33 35 36 39 40 43 47 47 50 58 63 66 72 75 61 57 58 58 62 73 71 59 61 59 40 27 25 30 32 33 30 33 32 36 36 36 36
24 28 29 27 32 32 28 30 34 39 40 46 47 47 50 50 57 63 70 76 72 60 53 47 59 60 70 66 61 53 57 37 31 31 33 35 36 38 37 37 35 29 30 36